Location: Étouvelles
(49.5207°N, 3.5808°E)
Time: 18:06:54
(UTC+00:00)

Cosmos 1340 - Pass Details

Date: 03 February 2023
Orbit: 478 x 483 km, 81.2° (Epoch: 25 March)

Event Time Altitude Azimuth Distance (km) Brightness Sun altitude
Rises 18:34:03 0° 348° (NNW) 2,555 6.3 -18.0°
Reaches altitude 10° 18:36:09 10° 350° (N) 1,672 5.3 -18.3°
Maximum altitude 18:39:49 81° 77° (ENE) 496 2.4 -18.9°
Drops below altitude 10° 18:43:28 10° 166° (SSE) 1,664 5.2 -19.5°
Enters shadow 18:43:38 - 166° (SSE) 1,731 5.2 -19.5°
